RH
12 11 12 14 15 15 14 14 13 13 12 12 12 11 11 11 11 11 11 11 11 10 10 10 9 9 10 12 12 12 12 11 10 10 10 10 10 10 10 9 9 9 9 9 10 10 11 12 13 14 15 16 17 18 18 18 19 20 21 23 26 30 34 37 38 36 36 40 44 47 48 47 46 44 42 42 41 38 36 36 36 35 35 37 43 51
10 10 12 13 14 14 13 12 12 11 11 11 11 11 11 11 11 11 11 10 10 10 10 10 9 9 11 11 11 11 11 10 10 10 10 9 10 10 10 10 11 12 12 12 13 13 14 15 16 16 17 18 19 20 20 21 23 26 29 34 39 42 44 45 45 45 48 53 56 55 52 48 42 40 36 35 36 36 35 35 36 39 43 50 58 66
10 10 10 11 11 12 12 12 11 11 11 11 11 11 11 11 11 10 10 10 10 10 10 10 9 10 11 11 10 10 10 10 9 10 10 10 11 11 12 13 13 14 15 15 16 16 17 17 18 19 20 21 23 25 27 31 34 39 44 48 53 56 56 55 53 55 59 62 60 55 51 46 41 40 38 37 38 38 39 41 45 51 58 66 72 76
10 10 11 11 11 11 11 11 11 12 12 12 11 11 11 11 11 11 11 11 11 10 10 10 10 10 11 10 10 10 9 10 10 10 12 13 14 14 14 14 15 15 15 16 17 18 18 19 20 21 24 27 29 33 38 43 49 54 58 62 65 65 64 62 61 62 62 59 56 52 50 48 44 42 42 43 45 47 51 56 62 69 74 76 73 65
11 11 11 11 11 11 11 11 12 12 12 12 12 12 12 12 12 11 11 11 11 11 11 10 10 10 10 10 9 9 9 10 11 12 15 16 16 15 15 15 15 15 16 17 18 20 21 23 25 27 31 35 39 43 49 54 59 62 66 68 68 67 66 66 65 61 56 52 51 50 49 49 48 49 52 56 60 64 69 73 76 76 71 62 48 33
11 11 11 11 12 12 12 12 12 12 12 12 12 12 12 12 12 12 12 11 11 10 10 10 10 10 10 10 9 9 11 12 13 14 16 16 16 15 15 15 16 17 18 19 21 22 25 28 33 37 41 44 48 53 56 58 60 63 65 66 66 66 64 61 57 54 50 49 50 52 55 58 61 65 69 73 76 78 78 73 65 55 43 31 21 14
12 12 13 13 13 13 12 12 12 12 12 12 12 13 12 12 12 11 11 10 10 10 10 11 11 9 11 13 11 10 12 12 13 15 15 16 16 17 18 19 21 23 24 26 27 29 32 35 39 43 46 47 49 52 54 56 59 61 61 59 56 55 54 53 53 54 56 59 64 69 72 74 75 77 79 81 80 73 62 49 36 27 20 16 14 12
14 14 14 13 13 13 13 13 12 12 12 12 13 12 11 11 11 11 11 11 11 10 10 13 12 11 12 14 13 12 13 13 13 15 16 18 20 23 27 29 32 34 35 36 37 37 38 39 41 43 44 46 47 50 52 53 51 49 47 47 50 53 57 62 66 71 75 79 81 82 82 84 85 83 78 70 59 46 33 23 16 14 13 13 13 12
14 14 14 14 13 13 13 13 13 13 12 12 11 11 11 11 11 11 11 11 11 10 11 14 13 13 13 13 13 14 13 13 14 16 19 24 29 34 38 41 44 46 46 45 45 44 43 42 43 43 44 45 47 49 48 47 45 47 51 57 64 70 76 81 85 88 89 89 89 89 90 87 81 70 55 41 29 20 15 12 11 11 11 12 12 12
14 14 14 14 13 13 13 12 12 12 11 11 11 12 12 12 12 12 12 12 12 11 12 13 14 14 15 14 14 14 15 16 19 22 26 32 38 45 49 52 55 54 52 50 48 46 43 41 41 42 43 44 45 47 49 53 58 65 73 79 85 90 94 95 95 95 95 96 95 90 80 66 50 36 25 17 12 10 10 10 10 10 11 11 11 11
14 14 13 13 13 12 12 12 12 12 12 13 13 13 13 13 13 13 13 13 13 13 13 14 14 14 17 19 17 17 19 21 25 30 34 39 45 51 55 57 56 53 50 46 42 39 37 39 41 44 47 51 55 62 69 76 82 88 93 96 98 100 101 101 101 101 98 90 76 60 45 31 21 15 11 10 9 9 9 9 10 10 10 11 10 11
13 13 12 12 12 12 13 13 14 14 14 14 14 14 14 14 14 14 14 14 14 14 13 13 14 16 21 26 26 28 30 31 33 37 39 43 47 51 54 52 48 42 38 35 36 40 44 50 56 61 68 75 82 89 93 96 98 100 101 102 103 104 105 103 97 87 72 54 38 26 18 13 10 9 9 9 9 10 10 10 10 10 10 10 10 11
11 11 12 13 14 15 15 16 16 16 15 15 15 15 15 15 14 13 13 13 13 13 13 16 18 22 28 32 37 45 47 44 42 42 43 45 46 46 43 37 33 32 36 44 53 61 68 74 81 87 93 97 100 101 101 101 102 103 102 101 98 91 83 72 58 45 32 23 17 13 11 9 9 9 10 10 10 10 10 10 11 11 11 12 12 12
12 13 15 15 16 17 16 17 17 16 16 15 16 16 16 15 13 12 12 13 14 15 17 21 25 31 39 44 48 52 51 49 48 45 42 39 35 32 30 32 38 48 60 70 77 84 89 93 96 99 100 101 102 103 101 98 93 87 78 68 59 49 40 32 26 21 16 13 11 10 10 10 11 11 11 11 11 12 12 13 14 14 15 15 15 15
13 14 16 16 17 18 17 18 17 17 17 16 16 16 15 16 15 14 14 14 16 17 20 28 34 37 42 46 47 48 47 44 40 35 31 30 31 36 44 56 68 78 86 91 94 98 99 98 98 99 101 101 98 91 80 68 56 45 36 30 26 24 21 18 16 13 11 10 10 11 12 13 13 14 15 15 16 17 17 18 19 19 19 19 18 17
14 15 16 17 19 19 20 20 19 18 18 16 16 16 16 17 17 18 19 21 22 21 23 32 37 37 38 38 37 37 36 34 33 35 41 49 57 67 78 86 91 95 97 99 100 100 100 100 101 98 91 80 66 52 39 30 25 22 21 21 19 18 16 14 12 12 12 13 13 14 15 17 19 20 22 23 24 25 24 24 23 22 21 20 19 18
15 16 18 19 21 22 22 20 19 19 18 17 18 18 18 20 21 23 24 27 28 25 27 34 37 35 30 26 28 33 39 47 54 62 72 80 87 93 97 97 96 97 99 101 102 102 99 93 82 67 52 40 30 24 22 21 21 20 19 17 16 15 14 13 13 14 15 16 18 21 24 27 28 29 31 31 31 31 29 27 25 22 19 18 16 15
16 17 19 22 23 23 21 20 19 19 18 19 21 22 24 24 26 26 27 30 31 29 28 28 30 31 31 37 48 59 70 79 84 89 94 97 98 99 100 100 101 102 101 97 91 81 68 54 40 30 24 22 21 21 20 19 18 17 16 16 16 17 18 20 23 25 28 31 33 35 35 35 34 33 32 30 29 27 25 22 20 18 16 14 14 13
18 17 20 23 23 22 20 19 19 19 19 22 24 25 27 28 30 32 32 31 27 23 23 27 41 56 65 75 81 85 91 95 96 98 100 100 102 102 102 99 93 85 74 62 49 38 30 24 21 20 19 19 19 19 19 20 21 23 26 28 31 33 35 36 37 37 36 35 33 31 29 26 24 22 21 19 17 16 14 13 13 12 11 10 11 11
22 20 20 22 22 20 20 19 20 20 21 23 24 27 28 29 29 27 25 25 25 32 44 57 77 88 87 89 92 92 96 97 98 101 102 102 98 90 79 66 53 43 34 27 22 19 18 17 18 19 20 23 26 29 32 34 36 37 38 37 35 34 31 28 26 23 21 19 17 15 14 13 12 11 11 10 10 10 10 10 9 8 8 9 10 11
24 21 20 21 21 21 21 22 21 22 23 24 25 25 23 21 21 23 31 43 53 66 77 87 97 95 88 93 99 98 99 100 101 100 91 79 63 48 37 29 23 20 18 17 18 19 22 25 28 31 34 36 37 37 35 33 30 26 22 19 16 14 13 11 10 9 9 8 8 8 7 8 8 7 8 8 8 9 10 11 11 11 11 12 14 19
22 20 19 20 22 24 24 24 23 23 23 21 18 18 20 26 37 48 60 72 79 87 93 97 102 98 93 98 102 101 102 97 86 70 52 37 27 21 19 18 18 19 21 26 30 33 36 37 36 35 32 29 24 20 17 14 11 9 7 7 6 6 6 6 6 6 6 7 7 7 7 7 8 8 9 10 12 14 16 19 21 22 25 26 30 36
19 19 20 22 24 24 24 23 21 18 16 17 22 31 42 52 61 70 77 83 89 97 100 100 101 99 98 101 101 94 81 62 44 31 22 18 17 18 21 24 27 31 33 34 34 32 29 25 21 17 14 11 9 7 6 5 5 5 5 5 5 5 5 6 6 7 8 9 10 12 13 15 16 17 18 20 22 26 30 36 38 41 46 48 52 57
21 20 21 22 22 20 17 15 14 18 25 34 44 53 61 66 73 83 90 93 97 101 102 101 102 100 96 88 73 54 37 24 19 18 17 20 24 29 32 35 36 35 30 24 20 16 12 10 8 7 6 5 5 5 5 5 5 5 5 6 6 7 8 9 11 14 16 18 21 24 27 30 31 32 32 33 35 39 46 55 56 58 62 65 69 75
22 20 17 15 14 13 15 20 27 38 46 50 53 59 69 79 88 95 98 99 101 102 101 98 90 75 60 48 34 23 18 17 20 24 28 33 35 37 36 33 28 22 16 12 9 7 6 6 6 5 5 6 5 6 6 6 6 7 7 9 11 13 16 19 23 26 28 30 31 33 36 39 40 40 39 40 42 46 55 65 67 66 68 70 72 79
17 14 12 12 16 22 32 39 42 43 47 52 60 72 83 92 99 101 101 101 100 94 80 66 54 39 27 21 19 17 19 23 31 40 42 36 30 28 26 21 15 10 8 7 6 6 6 6 6 7 6 7 7 7 8 9 10 12 14 18 22 27 30 32 35 37 38 39 39 40 43 44 47 48 46 45 45 46 50 59 66 69 70 72 72 74
14 17 23 30 38 43 45 46 44 45 55 70 81 89 94 98 101 100 96 87 76 63 45 32 28 27 22 19 19 23 32 39 43 43 36 25 18 16 13 10 8 7 7 8 8 8 8 7 8 8 8 8 9 10 12 15 18 21 24 28 34 39 43 45 46 47 47 47 47 47 47 48 50 51 52 53 53 52 50 52 59 65 67 70 72 74
28 37 43 46 47 44 42 49 57 65 78 90 95 97 97 96 90 80 69 56 45 38 29 22 22 23 23 26 33 42 47 44 35 26 19 14 11 9 8 8 9 9 9 9 9 9 9 9 9 10 10 10 11 12 16 20 25 30 33 36 39 42 44 43 42 41 39 39 38 37 36 36 36 36 38 40 44 46 47 50 57 63 66 66 67 69
41 43 40 40 46 49 54 67 76 83 91 95 95 93 86 76 64 51 42 36 30 27 24 23 25 29 36 45 48 45 36 26 18 13 11 10 9 9 10 9 10 10 11 11 11 11 11 11 11 12 12 13 15 18 22 26 31 35 37 37 36 35 34 32 31 30 28 27 26 24 23 23 22 22 21 22 23 25 27 31 38 45 53 59 63 65
35 33 33 43 61 71 73 80 84 87 91 89 83 75 63 51 43 37 34 31 27 25 27 33 41 47 50 48 38 25 16 12 11 11 10 11 10 10 11 11 12 13 12 12 12 12 12 13 14 15 17 20 24 28 31 33 35 35 34 33 32 30 29 27 25 24 23 22 21 20 20 19 18 18 17 17 17 17 17 17 18 22 28 36 46 55
32 41 49 62 79 83 80 81 82 80 78 73 63 53 43 36 34 33 31 29 29 35 44 51 53 49 39 27 17 12 11 11 11 12 12 12 12 12 13 14 14 13 13 14 14 14 16 17 19 23 27 31 34 35 37 37 36 36 35 33 31 29 27 25 24 23 22 21 21 20 20 19 18 18 17 16 16 15 16 16 15 15 16 18 23 31
52 64 70 77 84 84 79 76 72 67 63 54 44 37 34 32 31 31 34 40 48 55 56 50 40 30 21 14 12 12 12 12 12 13 14 13 14 15 15 15 15 16 16 16 16 18 20 23 27 32 36 39 41 42 42 42 40 38 35 32 30 28 26 25 24 24 23 22 22 21 20 19 19 18 17 16 16 15 14 14 13 13 14 14 15 16
71 76 76 78 80 78 73 66 60 55 49 40 34 32 32 31 35 42 52 58 57 49 39 30 23 18 14 13 12 12 12 13 14 15 16 16 16 17 17 18 19 19 19 20 21 23 26 31 37 42 46 48 49 49 47 44 41 37 33 31 29 27 27 26 25 25 24 23 23 21 20 19 18 17 16 15 14 14 13 12 12 12 11 12 12 13
75 75 73 71 70 67 61 54 49 44 38 34 33 34 36 43 53 62 63 56 41 27 21 18 16 14 14 14 14 14 14 14 15 18 20 20 20 19 19 20 20 21 22 23 25 30 37 45 52 55 57 57 54 51 46 42 37 34 31 30 28 28 27 26 25 24 23 22 20 19 18 17 17 16 15 14 13 13 13 12 12 11 11 11 10 11
72 71 66 62 60 55 50 46 42 38 33 31 36 44 54 62 64 58 48 35 24 18 17 15 15 15 16 16 16 16 16 18 19 21 22 21 21 22 21 22 22 23 24 28 35 45 55 62 65 64 62 58 53 48 43 39 35 33 31 29 28 27 25 24 23 21 20 19 18 17 16 15 14 14 13 13 12 12 11 11 11 11 10 11 11 10
65 64 59 55 52 48 45 43 40 36 35 41 52 62 67 61 47 37 30 24 19 17 17 16 17 18 17 18 19 19 19 19 20 21 22 22 23 24 24 25 25 27 32 43 56 66 71 72 70 66 62 56 50 45 40 37 34 31 30 28 26 24 23 21 21 19 18 17 15 15 14 13 13 12 12 12 11 11 10 10 10 10 10 10 9 10
58 57 53 50 48 46 44 40 37 40 49 61 69 69 59 43 29 25 25 22 19 18 18 18 19 19 19 21 21 20 19 18 19 21 23 24 26 27 28 31 35 42 53 66 76 79 78 76 72 66 60 52 45 40 37 34 32 30 28 26 24 23 21 19 18 16 16 15 14 14 13 12 12 11 10 10 10 9 10 9 9 9 9 9 9 8
55 53 51 49 46 45 41 38 43 56 68 73 68 56 41 28 22 21 21 20 20 20 20 21 21 21 21 20 20 19 19 19 19 21 24 26 28 30 31 37 49 63 75 82 84 83 81 78 71 63 54 46 41 37 34 32 30 28 26 24 22 20 18 17 16 15 14 13 12 12 11 10 10 9 9 9 8 8 8 7 8 8 7 7 8 7
53 51 49 47 44 42 43 50 63 74 74 66 55 41 28 22 21 21 21 21 22 22 22 22 21 21 20 20 21 21 22 23 22 23 26 28 30 33 38 49 64 77 85 86 86 84 80 74 65 55 48 43 40 37 34 32 29 26 24 22 20 18 17 16 15 13 12 11 10 9 9 8 7 7 7 7 6 7 7 6 7 7 7 7 7 7
52 49 47 44 43 48 59 71 77 73 60 49 40 31 24 22 22 23 23 23 23 23 22 22 21 21 21 22 24 26 28 29 28 29 31 32 35 44 56 70 80 85 87 87 87 83 76 68 59 52 47 43 40 36 33 29 26 23 22 20 18 17 15 13 12 11 10 9 8 8 8 8 8 8 8 8 7 7 8 8 8 8 8 8 8 7
52 50 48 47 53 66 77 79 71 57 45 37 31 26 24 24 24 24 25 24 24 23 23 22 23 23 24 27 30 31 32 34 35 36 38 41 49 62 76 86 90 90 91 91 87 81 73 65 58 51 46 41 37 33 29 26 23 22 19 18 16 14 12 10 10 9 9 9 10 10 10 9 8 8 8 8 8 8 8 8 8 8 8 9 9 9
52 51 53 61 72 80 79 69 54 42 36 32 28 26 26 26 26 26 25 25 24 24 24 25 26 27 29 31 33 34 36 38 40 42 45 54 69 83 90 93 92 92 93 91 87 80 71 64 57 50 44 38 33 29 26 23 22 19 17 16 13 11 10 10 10 10 11 11 10 9 10 14 20 24 25 24 23 23 22 22 19 15 12 10 9 10
54 58 67 77 82 79 68 54 42 35 32 30 28 27 27 27 27 26 26 26 27 26 27 28 29 31 32 34 35 37 39 40 43 48 56 72 89 98 99 97 94 92 92 90 85 78 69 62 55 47 39 34 29 27 24 22 20 17 15 12 11 11 11 10 11 13 12 10 12 20 33 46 56 59 55 48 41 37 35 36 34 29 26 20 13 10
63 72 81 84 77 66 53 42 35 31 30 30 29 29 29 29 29 29 28 28 28 28 29 30 33 36 38 38 39 39 41 43 46 53 65 83 97 101 99 97 95 94 92 89 83 75 66 58 48 40 34 31 27 25 23 19 17 14 12 11 12 12 11 12 14 13 12 20 36 54 67 73 71 64 55 44 35 29 28 30 31 33 35 31 20 12
77 84 86 78 62 51 43 36 32 31 31 31 31 31 31 31 31 31 30 29 29 30 32 33 36 39 41 42 42 42 44 46 49 60 76 90 98 99 97 96 96 95 92 87 79 70 60 50 41 35 32 28 26 23 20 16 14 12 12 13 13 12 13 14 12 15 28 49 69 80 82 78 69 57 46 34 25 21 20 22 25 32 38 37 27 15
87 86 79 64 48 40 38 34 32 33 33 33 34 34 33 34 33 32 31 31 31 33 34 36 39 42 43 44 45 45 46 49 57 73 88 96 98 98 96 95 95 93 89 82 73 62 52 42 37 33 29 26 24 20 16 14 13 13 14 14 13 14 15 13 16 34 59 77 87 92 90 81 65 51 40 32 25 20 17 17 22 32 39 36 25 14
84 77 66 51 39 36 35 33 34 35 35 35 35 35 35 34 32 31 31 31 32 35 37 40 44 46 47 47 47 47 49 58 71 85 94 98 99 98 95 93 91 88 84 76 65 54 45 38 35 31 27 24 21 16 14 14 14 15 16 14 14 16 14 15 34 64 83 88 92 99 96 82 63 49 41 34 25 20 19 18 20 26 30 26 18 11
77 68 56 43 36 36 36 35 36 37 37 37 37 36 35 33 32 32 31 32 34 37 41 45 48 49 49 49 47 48 56 72 87 95 100 103 101 97 94 91 87 84 78 67 56 48 41 36 32 28 24 21 17 14 14 14 15 16 16 14 16 16 13 26 61 89 95 95 98 99 94 86 75 63 51 40 27 18 16 18 21 21 18 15 13 11
67 57 46 39 37 37 37 38 38 37 38 39 38 36 35 33 32 33 33 35 38 41 46 50 52 52 51 49 48 53 67 86 98 101 103 105 102 97 93 89 84 79 70 59 51 44 39 34 29 25 22 18 15 14 15 15 17 17 15 16 18 15 18 44 81 99 100 98 98 95 94 97 93 81 65 49 34 21 13 12 16 17 14 11 12 12
56 47 41 38 39 39 39 40 40 39 39 39 38 37 35 33 33 35 36 39 43 47 51 54 54 54 51 49 53 67 83 96 102 103 105 105 101 96 91 86 81 74 63 54 47 41 36 32 27 23 19 15 15 16 16 17 18 16 16 19 18 16 32 63 90 100 100 96 93 94 97 101 101 96 83 65 46 30 17 9 10 13 12 10 11 12
48 43 41 40 41 41 42 42 42 42 42 41 39 37 35 34 36 38 41 45 50 54 57 57 56 54 50 51 65 83 96 103 105 105 105 103 100 96 90 85 77 67 57 51 45 38 33 29 24 21 17 14 16 17 16 18 18 16 19 23 17 23 53 82 94 98 98 92 90 96 99 99 100 101 98 87 70 48 28 13 8 10 13 12 11 12
Wind_Speed
23 22 23 24 25 26 26 26 27 28 28 28 30 31 31 32 31 32 34 35 36 38 38 38 39 39 38 38 39 40 40 40 40 41 42 42 42 43 42 42 43 45 47 48 49 49 50 51 51 52 52 52 52 52 52 53 53 54 54 53 53 52 52 53 54 55 55 55 56 56 56 57 57 57 57 57 58 58 58 59 59 59 59 59 60 61
23 22 23 25 26 27 28 28 28 29 30 30 31 31 32 33 33 34 35 35 36 37 38 39 40 40 39 39 40 40 41 41 42 42 42 42 43 43 43 44 45 46 47 48 49 50 50 51 51 51 51 51 51 51 51 51 51 51 51 51 51 51 52 53 54 55 56 56 56 57 57 58 58 59 59 59 60 60 60 60 60 60 60 60 61 62
23 23 24 26 27 28 29 29 29 30 30 31 32 33 32 33 34 35 36 36 37 38 38 39 40 39 39 39 40 41 42 43 43 43 42 43 43 44 45 46 47 48 48 49 49 49 49 50 50 50 50 50 50 49 49 49 49 49 49 49 50 51 53 55 56 56 56 57 58 58 59 59 60 61 61 61 61 62 62 61 61 61 61 62 62 63
22 23 24 26 27 28 28 29 29 30 30 31 33 33 33 34 35 36 37 37 38 39 39 40 40 40 40 40 40 42 43 43 44 44 43 43 44 45 46 47 48 49 49 49 49 49 49 49 50 50 49 49 48 48 48 48 48 48 49 50 51 53 54 56 56 57 57 58 59 60 60 61 62 62 63 63 62 63 63 62 62 63 63 64 64 64
22 23 25 26 27 27 28 28 29 30 30 31 33 33 34 34 35 36 37 37 38 38 39 40 41 41 42 42 42 44 44 45 45 45 44 44 44 46 47 48 48 49 49 48 48 48 49 49 49 49 49 48 48 48 49 49 49 49 50 51 53 54 55 56 57 58 58 59 60 61 62 63 63 63 64 64 64 64 64 64 64 64 65 65 65 65
22 23 24 25 26 26 27 28 29 30 31 32 32 34 34 35 35 36 37 37 38 39 40 41 42 43 44 44 45 46 47 46 46 46 45 45 46 46 47 47 48 48 48 48 49 49 49 49 49 48 48 48 48 49 49 50 50 51 52 53 54 55 56 57 58 59 60 61 62 63 64 64 65 65 65 66 66 66 66 66 66 66 66 66 66 66
21 22 23 24 25 26 27 28 29 30 31 32 32 34 35 35 36 37 37 38 39 40 41 42 43 45 45 46 47 47 47 47 47 46 45 45 46 46 46 47 47 48 48 48 49 49 49 50 50 49 49 49 50 50 50 51 52 52 54 55 56 57 58 59 60 61 62 63 64 65 66 66 67 67 67 68 68 68 68 68 68 68 68 68 68 68
21 22 23 24 25 26 27 28 30 30 31 32 33 34 35 35 36 37 38 39 41 41 42 43 46 46 46 47 47 46 46 47 46 46 45 45 45 45 45 45 46 47 48 48 49 50 50 51 51 51 51 51 51 51 52 52 53 54 56 57 58 59 60 61 62 63 64 65 66 67 68 68 68 69 69 69 69 69 69 69 69 69 69 69 69 69
21 22 23 25 26 27 28 29 29 30 31 32 33 34 35 36 37 39 40 41 42 43 43 45 47 47 47 47 47 46 46 46 45 44 44 44 44 44 44 45 46 47 48 49 50 50 51 52 52 52 52 52 52 53 53 54 56 57 57 58 59 60 62 63 64 65 66 67 68 69 69 69 70 70 70 70 70 70 70 70 70 71 70 70 70 70
22 23 24 25 26 27 28 29 30 31 32 33 34 35 37 38 39 41 42 43 44 44 45 46 47 47 47 46 46 46 46 44 43 43 43 43 43 44 44 45 46 47 48 49 50 51 52 52 52 53 53 53 54 55 56 57 58 58 59 60 62 63 64 66 67 67 68 69 69 70 70 71 71 71 71 70 70 71 71 71 71 71 71 71 71 70
22 23 24 25 26 27 28 29 30 32 33 34 36 37 39 40 41 43 44 44 45 45 45 46 46 46 45 44 45 45 44 43 42 43 43 43 44 45 45 46 47 47 48 49 50 51 52 53 53 53 54 55 56 58 59 60 60 61 62 63 64 65 66 67 68 68 69 69 70 70 71 71 71 71 71 71 71 71 71 71 72 72 72 71 71 70
23 24 25 26 26 27 28 30 32 33 35 36 38 39 40 42 43 43 44 45 45 45 45 46 46 46 44 43 43 42 41 42 42 43 43 44 45 46 46 47 47 48 49 50 51 52 52 53 54 55 56 58 59 61 62 62 63 63 64 65 65 66 67 68 69 69 70 71 71 72 72 71 71 71 72 72 72 72 72 72 72 73 73 72 72 72
24 25 26 26 27 28 30 32 34 36 37 39 40 41 42 43 44 44 45 45 45 45 46 45 45 43 41 41 40 39 39 40 42 43 44 44 45 47 47 48 49 50 50 51 52 53 54 55 57 58 59 60 61 62 63 64 65 65 66 67 67 67 68 69 70 70 71 72 72 72 72 71 71 72 72 73 73 74 74 75 75 75 75 75 74 74
24 25 27 28 29 31 33 35 37 38 40 41 41 42 43 44 45 46 46 46 46 45 45 43 42 40 39 38 38 38 39 40 41 43 44 45 47 48 49 50 50 51 52 53 54 56 57 59 60 61 61 62 62 63 65 66 67 67 67 68 68 69 70 71 71 72 72 72 72 72 72 73 73 73 74 74 75 76 77 78 79 79 79 78 77 76
26 27 29 31 32 34 35 37 38 40 41 42 42 43 44 44 45 46 46 46 46 45 44 42 40 39 38 39 39 40 41 41 42 44 45 46 48 49 50 51 52 53 54 55 56 58 60 61 61 62 62 62 63 64 66 67 68 68 69 69 70 70 71 72 72 73 73 73 74 75 76 76 77 77 77 78 78 79 80 81 82 82 82 81 80 79
29 31 32 34 35 37 38 39 40 41 42 43 43 44 44 44 44 44 44 44 44 44 43 40 39 39 40 41 42 42 43 43 44 45 46 48 49 51 52 53 53 54 55 56 57 59 60 61 61 62 63 64 65 67 68 69 70 70 71 72 72 72 73 73 74 75 76 77 78 79 80 81 82 82 82 82 82 82 83 83 84 84 84 84 83 82
32 33 35 37 38 39 40 41 41 42 42 43 43 43 43 43 43 43 42 42 42 42 41 39 39 39 41 43 43 43 44 45 47 48 49 50 51 52 53 53 54 55 55 56 57 59 60 61 62 64 65 66 67 69 69 70 72 73 74 74 74 75 75 76 78 79 80 81 82 83 84 86 86 87 87 87 86 86 86 86 86 86 87 86 86 84
35 36 37 38 39 40 41 41 41 42 42 42 41 41 42 42 42 41 41 40 40 40 39 39 38 39 41 43 44 45 47 49 50 51 51 52 52 52 52 52 53 53 54 56 58 60 61 62 63 65 66 67 69 70 71 72 73 75 76 77 78 79 80 81 83 84 85 86 87 87 88 88 89 90 91 91 91 90 89 89 88 89 89 89 87 85
39 39 38 38 39 40 41 41 41 41 41 40 40 40 39 39 39 39 39 39 40 40 40 39 39 40 42 44 46 48 50 51 52 52 52 51 51 51 51 51 52 54 56 58 60 62 62 63 65 66 68 69 71 73 74 76 77 79 81 82 84 85 86 87 88 89 89 90 90 90 90 91 92 93 94 95 96 96 95 94 93 93 93 92 90 87
41 41 40 39 40 41 41 41 41 40 40 39 38 38 37 37 37 37 37 38 39 40 40 41 42 43 45 47 48 50 51 52 52 51 50 50 50 51 51 53 55 57 59 61 62 63 64 66 68 70 72 74 75 77 79 81 82 84 85 87 88 89 90 91 92 93 93 94 94 95 95 96 96 97 98 98 98 97 96 96 95 95 94 92 90 86
42 42 41 40 40 40 40 40 40 39 38 37 37 36 36 36 35 36 36 37 38 40 42 43 45 47 48 49 50 50 50 50 50 49 49 50 51 52 53 55 57 59 61 63 65 67 69 71 73 75 77 79 80 82 83 85 86 87 89 90 92 93 94 95 96 98 99 99 99 100 100 100 100 99 99 97 96 93 92 91 90 90 88 86 83 80
42 42 41 39 38 38 37 37 37 37 37 37 37 36 35 35 36 37 38 39 40 41 43 44 46 48 49 49 49 49 49 49 49 50 51 51 53 54 56 58 60 63 65 67 69 71 73 75 77 79 81 82 84 85 87 88 90 91 93 94 96 97 98 99 99 100 100 100 99 98 98 97 95 94 92 90 88 85 82 81 80 79 77 75 74 72
41 40 38 36 35 35 35 35 35 36 36 36 36 36 36 37 38 39 41 42 42 42 43 43 44 46 46 46 47 47 47 48 50 51 52 53 55 57 59 62 64 66 68 70 72 74 76 78 80 82 84 86 88 89 91 92 94 95 96 97 98 98 98 98 97 96 94 93 91 88 87 85 83 81 79 76 74 72 70 69 68 67 66 66 66 66
38 37 36 34 33 33 34 34 35 35 35 36 36 36 37 38 39 41 42 43 44 43 42 42 42 43 43 44 45 45 46 48 49 51 53 55 57 59 62 64 66 68 70 72 74 77 79 81 83 85 87 89 91 92 93 94 95 95 95 95 95 94 92 90 88 85 82 80 77 74 72 71 69 68 66 65 63 61 60 59 60 59 59 59 60 60
35 35 35 35 33 32 32 33 34 35 36 37 39 39 39 39 40 41 41 42 43 42 41 41 41 41 42 43 43 43 45 47 49 52 54 56 58 60 63 65 68 71 73 75 78 80 82 84 86 88 89 90 91 92 93 93 92 92 90 89 87 84 81 78 75 73 70 68 66 64 63 62 62 61 60 59 58 57 57 57 57 57 56 56 56 56
32 32 34 34 34 33 34 35 37 38 39 39 40 40 40 40 40 40 41 41 40 39 39 39 40 40 41 42 42 43 46 48 50 52 54 57 59 62 65 67 70 73 76 78 81 83 85 86 88 89 90 90 91 90 90 88 86 85 82 80 77 74 72 70 67 66 65 64 63 62 61 61 61 61 61 61 60 60 59 58 58 58 58 57 55 54
30 31 32 32 33 35 36 38 39 41 41 41 40 40 39 39 38 38 39 39 38 38 37 38 40 41 42 43 45 47 49 51 53 54 56 59 62 65 68 71 74 76 79 81 83 85 87 89 90 90 90 89 88 86 84 82 79 77 75 73 70 69 68 67 66 66 65 65 64 64 64 63 63 63 63 63 63 63 62 61 60 60 60 59 57 56
30 30 31 32 34 37 38 39 40 40 40 40 39 38 37 37 37 37 38 38 38 38 38 39 42 44 46 48 50 52 54 55 57 59 61 64 67 69 72 74 77 79 81 84 86 88 90 90 90 90 88 87 85 83 80 78 75 73 72 70 69 68 67 67 67 67 67 67 66 66 66 65 65 65 64 63 63 64 64 63 62 62 62 61 60 58
32 32 33 34 35 38 39 40 40 39 38 37 37 36 36 37 37 37 37 38 38 39 41 43 45 48 50 51 52 55 57 59 60 63 65 68 70 72 74 77 79 81 83 85 87 89 90 91 91 89 87 85 82 79 77 75 73 72 71 71 70 70 70 70 69 69 69 69 69 69 68 68 67 67 67 66 66 66 65 65 64 63 63 63 62 61
34 35 36 35 36 38 39 39 39 38 36 35 36 36 37 37 38 38 39 40 40 42 44 46 48 50 51 51 52 54 58 60 63 65 68 70 72 74 76 79 81 83 85 88 89 91 91 91 89 86 83 80 78 77 75 74 73 72 72 72 72 72 72 72 72 71 71 71 71 71 71 71 70 70 70 69 69 68 68 68 67 66 65 65 64 63
36 36 37 36 36 37 38 38 38 37 36 35 35 36 37 38 39 40 41 42 42 44 46 47 48 49 50 51 52 54 58 62 65 68 70 72 75 77 79 81 83 86 88 89 90 90 88 86 83 81 78 77 76 76 76 76 75 74 74 74 74 74 74 74 74 74 73 73 73 73 73 74 73 73 73 72 72 71 71 71 70 69 69 68 67 66
36 37 37 36 36 37 38 38 38 38 37 36 35 36 38 39 40 42 43 44 46 47 47 48 49 50 51 52 54 56 60 65 68 71 74 77 78 80 81 83 85 87 88 89 88 87 84 82 80 78 77 77 77 76 76 76 75 75 75 75 75 75 75 75 75 76 76 76 76 77 77 77 77 76 76 76 75 75 74 73 73 72 71 70 69 68
36 36 37 36 36 36 37 38 39 39 38 36 36 37 39 40 41 43 45 46 47 47 49 50 52 54 56 57 59 60 63 67 72 75 78 79 80 80 82 84 85 86 87 88 87 85 83 81 79 78 77 77 77 76 76 76 76 75 75 75 75 76 76 77 77 78 78 79 79 80 80 80 80 79 79 79 78 78 77 77 76 75 75 73 72 70
36 37 37 37 36 35 36 36 37 37 37 36 38 39 40 42 43 45 46 46 47 48 51 54 56 58 60 62 64 65 66 70 73 75 76 78 80 81 83 84 86 87 87 87 85 83 81 79 78 77 77 77 77 76 76 76 76 76 76 77 77 78 79 80 81 81 82 82 82 83 83 83 83 83 82 82 81 80 80 79 79 78 78 77 75 73
37 37 37 37 37 36 37 37 37 37 36 37 39 41 43 43 45 46 47 48 49 51 53 56 58 60 63 65 67 68 69 69 71 72 75 78 81 83 85 86 87 87 86 84 82 79 78 77 77 76 75 75 76 76 76 76 77 77 78 79 81 82 83 84 85 85 86 86 86 86 87 87 86 86 86 85 85 84 82 82 81 80 80 79 78 76
36 36 37 38 38 38 38 39 39 39 38 40 42 43 44 44 45 46 47 48 51 53 55 58 61 63 65 67 68 69 69 69 71 74 77 79 81 83 85 85 86 85 82 80 78 77 76 76 76 76 76 75 76 76 76 77 78 79 80 82 84 85 86 87 88 89 90 90 90 90 90 90 90 89 89 88 88 87 86 84 83 83 82 81 79 78
36 36 37 38 39 39 39 39 40 40 41 43 44 44 44 45 47 49 51 52 54 56 59 62 64 65 67 68 69 70 72 72 73 75 78 80 81 82 83 83 83 81 78 75 75 75 76 76 76 76 77 77 77 79 79 80 82 83 84 85 87 88 89 90 91 92 93 93 94 94 94 94 93 92 91 90 90 89 88 86 85 83 83 82 81 79
36 36 37 38 39 40 40 39 41 42 42 43 44 44 45 47 49 52 54 55 56 58 61 63 65 66 68 70 72 74 76 76 76 77 78 80 82 83 83 81 79 77 75 74 73 74 75 76 75 76 77 78 80 82 83 84 86 87 89 90 91 92 93 93 94 95 95 95 95 95 95 95 95 94 92 91 89 88 86 85 83 82 81 80 80 78
36 36 37 38 38 39 40 41 42 43 43 43 43 44 46 48 50 53 55 56 58 61 62 64 66 68 70 73 75 76 78 79 79 79 81 82 83 83 81 79 76 74 73 73 73 73 73 74 75 76 77 79 81 83 86 88 90 91 93 94 95 95 96 96 96 96 96 96 95 95 94 94 93 92 90 88 86 84 82 80 79 78 77 76 75 74
36 36 36 37 37 39 40 41 42 42 42 43 44 45 47 49 52 55 57 58 60 64 65 66 68 70 72 74 75 76 78 81 83 83 84 84 83 80 77 76 74 74 73 72 72 72 73 74 76 78 79 81 83 85 87 89 92 94 96 96 97 97 97 97 96 96 95 94 92 90 89 88 87 85 83 82 80 77 74 73 72 71 70 70 69 68
37 37 37 37 38 40 41 40 41 41 42 44 45 47 49 52 54 57 60 62 63 65 68 70 71 72 73 73 75 76 78 81 83 84 84 83 80 76 74 73 72 73 73 73 73 73 73 74 76 79 82 85 87 88 90 92 93 95 96 96 96 96 96 96 94 93 91 88 86 84 82 80 78 76 74 72 71 69 66 65 64 63 63 63 62 62
37 38 38 39 39 40 40 40 40 42 43 45 48 49 51 54 57 59 62 65 66 67 69 71 72 73 73 74 75 77 79 80 82 82 81 79 77 74 72 71 71 71 72 73 74 75 75 75 77 80 83 87 90 91 93 94 94 95 95 95 95 94 93 91 89 86 84 82 80 78 75 72 70 69 67 65 64 62 61 60 59 58 58 57 56 56
38 39 40 40 41 41 41 41 43 45 47 49 51 53 54 57 60 62 63 65 67 68 69 71 72 73 74 75 76 78 80 81 81 81 79 76 74 73 72 72 71 71 72 73 74 75 77 78 80 82 85 89 91 93 94 95 94 94 94 93 92 90 88 85 82 81 79 77 74 71 67 65 63 62 62 61 59 58 56 55 55 54 54 53 52 51
39 40 41 41 41 41 42 44 46 49 51 53 54 56 58 60 61 63 64 66 67 69 70 71 72 73 75 76 78 79 81 81 81 80 77 74 72 72 72 72 72 72 72 73 74 76 78 80 82 84 87 90 93 94 94 95 94 93 91 90 88 85 82 79 77 76 74 71 68 64 61 59 58 57 56 56 55 53 51 50 50 49 48 48 47 46
39 39 39 40 41 43 44 46 49 51 53 55 57 58 60 61 62 64 65 67 68 69 71 72 73 74 76 78 80 82 83 83 81 78 75 73 72 72 72 72 73 73 73 74 75 77 80 82 84 86 88 91 93 93 94 94 93 91 88 86 83 80 78 75 73 71 69 66 63 61 58 56 55 53 52 51 50 49 47 45 44 43 42 42 41 39
38 39 40 41 43 44 46 48 50 52 54 56 57 59 60 61 62 64 66 67 69 70 72 74 75 76 78 80 82 84 84 83 80 76 73 71 71 72 72 72 73 73 74 76 77 79 82 84 87 89 90 91 92 92 92 92 90 87 84 81 79 76 74 72 69 66 64 62 60 58 56 54 51 50 48 47 46 45 43 40 38 37 36 35 34 33
38 39 41 42 43 46 47 49 51 52 54 56 57 59 60 62 64 66 67 69 71 72 74 76 77 78 79 81 83 84 83 81 77 73 71 70 71 71 72 72 72 73 75 77 80 82 84 86 88 90 91 91 91 91 90 88 85 82 79 77 75 73 70 68 65 62 60 58 57 55 52 50 47 45 44 43 42 41 39 37 34 31 29 28 27 26
38 40 41 42 44 46 48 50 51 53 55 57 58 60 62 64 65 67 69 71 72 74 75 76 78 79 81 83 84 83 80 77 74 72 70 71 71 72 72 72 72 73 75 78 81 84 86 88 90 91 92 92 91 89 87 84 80 77 75 73 71 69 66 63 61 59 57 55 53 50 47 45 44 42 41 40 39 37 35 32 29 27 25 22 20 21
39 41 42 43 45 47 49 51 53 54 56 59 61 62 64 65 67 69 70 72 73 74 74 76 78 81 83 84 83 80 76 72 71 70 70 71 72 73 73 73 73 74 77 80 83 85 88 90 92 92 92 91 89 87 83 80 76 74 72 70 68 65 62 59 56 55 54 51 48 45 43 42 41 40 38 37 35 35 33 28 24 22 21 18 16 17
40 42 43 45 47 49 51 54 56 58 59 61 63 64 65 67 69 70 71 73 74 74 75 76 78 81 84 84 81 77 72 69 68 69 70 71 73 74 74 74 75 76 79 82 84 87 89 91 92 92 91 89 87 84 80 76 73 71 69 67 64 62 60 56 53 51 49 47 44 42 41 41 39 38 37 34 32 31 30 27 21 17 18 17 14 13
41 43 45 47 49 52 54 56 58 60 61 62 64 66 67 69 71 72 73 74 74 75 76 78 80 81 82 81 77 73 70 69 68 69 70 72 73 74 75 76 77 79 81 84 86 88 90 91 91 91 89 86 84 80 77 74 71 68 65 63 62 60 57 54 51 48 45 43 41 41 41 40 38 37 35 34 31 27 27 25 21 16 14 14 13 11
Wind_Direction
276 277 279 279 279 281 283 285 285 285 285 287 288 289 291 293 294 294 293 293 293 293 295 296 295 296 298 298 297 298 298 297 297 297 297 299 298 296 296 295 294 292 292 291 292 292 292 292 292 291 291 290 290 289 289 288 288 287 287 287 287 287 287 287 287 288 289 289 289 288 288 287 287 287 288 288 288 288 288 289 289 290 290 291 291 290
278 279 278 278 278 280 282 284 285 286 288 290 292 293 295 297 296 295 294 294 294 294 296 296 295 297 299 298 298 299 298 298 298 298 298 298 296 295 295 295 294 293 292 292 292 292 291 291 290 290 289 289 288 288 288 288 287 287 287 287 287 287 287 287 287 288 289 289 288 288 288 288 288 288 288 288 288 289 289 289 289 289 289 289 288 288
280 280 279 278 279 281 284 287 288 290 293 295 296 297 299 299 297 296 296 297 297 297 297 297 297 298 298 298 298 298 297 298 298 298 298 297 295 295 295 294 293 293 293 293 292 291 290 290 289 289 289 289 289 289 289 288 288 288 288 288 288 288 287 288 288 289 289 288 288 288 288 289 289 289 288 288 288 288 288 288 288 288 287 287 287 286
282 282 281 280 281 283 285 288 291 293 296 297 297 299 300 299 298 298 298 298 298 298 298 297 297 298 297 297 297 296 297 297 297 298 298 297 296 296 295 294 293 293 293 292 291 291 291 290 290 289 290 290 290 290 289 289 288 288 288 288 287 287 287 287 288 288 288 288 288 288 288 288 288 288 287 287 287 287 286 286 286 285 285 285 285 285
284 283 282 283 284 286 288 291 293 295 297 298 298 299 299 298 298 298 298 298 298 298 298 298 298 298 298 298 297 297 298 298 299 299 298 297 297 295 294 293 293 292 292 291 291 291 291 290 290 291 291 291 291 290 289 289 289 288 288 287 287 287 287 287 287 287 287 287 287 287 286 286 286 286 286 286 286 285 285 284 284 284 284 284 285 285
287 286 286 288 289 291 293 294 295 296 297 298 298 297 297 297 297 297 297 297 297 297 298 299 299 299 299 299 298 299 300 300 300 299 298 298 296 295 295 294 294 293 292 292 292 292 291 291 292 292 292 291 290 290 289 289 289 289 288 288 287 287 287 286 286 287 287 287 286 285 285 285 285 285 286 286 285 285 285 285 284 284 285 285 286 286
290 290 291 292 293 294 295 296 297 297 297 297 296 296 296 296 296 297 297 297 297 298 300 300 298 298 299 299 299 300 300 300 299 298 298 297 297 297 296 296 295 295 295 295 295 294 294 293 293 293 292 292 291 290 290 290 289 289 288 288 288 287 287 287 287 287 287 286 286 286 286 286 286 286 286 286 286 286 286 286 286 286 286 287 286 286
294 294 294 294 294 295 295 296 297 297 297 296 296 296 295 296 296 296 297 297 298 299 300 299 298 298 298 298 299 299 298 298 297 298 298 298 299 299 298 298 298 298 297 297 296 296 295 295 294 294 293 293 292 292 291 291 290 290 289 289 288 288 288 288 288 287 287 287 287 287 287 288 288 287 287 287 287 287 287 287 287 287 287 287 286 286
297 296 295 295 295 295 295 295 295 295 295 295 295 295 295 296 296 296 297 297 298 299 299 298 298 299 297 297 298 298 297 297 298 299 300 300 301 300 300 299 298 298 298 297 296 296 296 296 295 295 294 294 293 293 292 292 291 290 290 289 288 288 288 288 288 288 288 289 289 289 289 288 288 288 288 288 288 288 287 287 287 287 287 286 286 286
296 295 295 296 296 296 296 295 295 295 295 295 296 296 296 297 297 297 298 298 298 299 299 298 298 297 297 297 298 298 299 301 302 301 301 301 301 300 299 298 297 297 297 296 296 296 296 295 295 294 294 293 293 292 291 291 290 290 289 289 289 289 289 289 289 289 289 289 289 289 289 288 288 288 288 288 288 288 288 287 287 287 286 286 286 287
298 297 297 297 297 296 296 295 295 296 296 296 296 297 297 298 298 298 298 299 299 299 298 297 297 297 299 301 301 301 303 304 303 302 301 300 299 298 297 296 295 296 296 296 296 295 295 295 294 294 294 293 293 293 292 292 291 291 291 290 290 290 290 290 290 290 290 289 289 289 289 289 289 289 288 288 288 288 288 287 287 287 287 287 287 288
300 299 298 298 297 297 297 297 297 297 297 298 298 298 298 298 298 298 298 298 298 298 298 298 298 300 303 305 305 305 305 303 302 300 299 298 297 296 295 295 295 296 297 297 296 296 295 295 295 295 295 295 295 294 294 293 293 292 291 291 291 291 290 290 290 290 290 290 289 289 289 289 289 289 289 289 289 288 288 288 288 288 288 288 288 288
301 301 300 300 299 299 299 299 299 299 299 299 299 299 298 298 298 298 298 298 298 299 299 300 302 303 305 306 306 305 303 301 299 298 297 296 295 294 295 296 297 298 298 298 298 297 297 297 297 296 296 296 295 295 294 293 292 292 291 291 291 291 290 290 290 290 289 289 289 289 289 289 289 289 290 290 290 290 290 289 289 289 288 288 288 288
300 300 300 300 300 300 299 299 299 299 299 299 299 299 299 299 299 299 299 299 300 300 301 302 303 304 304 303 302 300 298 298 297 296 295 295 294 295 297 298 299 299 299 299 299 299 298 298 297 297 296 296 295 294 293 292 292 292 292 292 292 291 291 290 290 290 289 289 289 289 289 289 289 289 289 290 290 290 289 289 289 288 288 288 287 287
299 299 300 300 300 300 300 300 300 300 300 300 300 300 300 300 300 300 300 300 300 301 302 303 303 303 302 301 299 298 297 297 297 296 296 296 297 298 299 300 300 301 301 300 300 299 298 298 297 297 296 296 295 295 294 294 294 294 294 293 292 292 291 291 290 290 289 289 289 289 289 289 289 288 288 288 288 288 288 288 288 288 287 287 287 287
301 302 302 302 302 303 302 301 301 302 302 301 301 301 300 300 300 300 300 300 300 301 302 303 303 303 302 300 299 299 300 299 298 298 298 299 300 301 302 302 302 302 301 301 300 299 298 298 298 298 298 298 297 296 296 296 296 295 294 294 293 292 291 291 290 290 290 290 290 290 290 290 289 289 288 287 287 287 287 287 288 288 287 287 287 287
302 303 304 304 305 304 303 303 303 303 302 302 302 301 301 301 300 301 301 301 301 302 304 304 304 303 302 301 301 301 300 299 299 300 301 302 303 304 304 303 303 303 302 301 300 299 299 300 300 300 300 299 298 297 297 297 296 296 295 294 293 292 292 291 291 291 290 290 290 290 290 290 290 290 289 288 287 287 287 287 287 287 288 288 287 287
302 303 305 305 305 304 303 302 302 302 302 302 301 301 301 302 302 302 303 303 303 304 304 303 303 303 302 301 301 300 301 301 302 303 304 305 305 305 305 304 303 303 302 301 300 300 301 301 301 301 300 299 299 298 298 297 296 296 295 295 294 293 293 292 291 291 291 290 290 290 290 290 290 290 289 289 288 287 286 286 286 286 287 287 287 286
303 304 305 305 304 303 302 302 302 302 302 302 301 302 302 302 303 304 305 305 304 304 304 303 304 303 302 302 302 302 303 304 305 306 307 307 307 306 305 305 304 303 303 303 302 302 302 302 301 300 300 299 299 299 298 297 297 296 296 295 294 294 293 293 292 292 291 291 291 290 290 289 289 289 289 289 288 288 287 287 286 285 285 285 285 284
304 304 305 305 304 303 303 303 303 303 303 302 302 303 303 304 305 305 305 305 305 305 305 305 305 304 303 303 303 304 305 305 306 307 308 308 307 307 307 306 306 305 305 303 303 303 303 302 302 301 300 300 299 299 298 298 297 297 296 296 295 295 294 294 293 293 292 291 291 290 290 289 289 288 288 288 288 288 288 287 286 285 284 283 283 282
304 304 305 305 304 304 303 304 304 304 304 304 304 305 305 306 306 306 306 306 306 307 307 307 307 305 305 306 306 306 306 307 308 309 309 309 309 309 309 308 307 305 304 304 304 304 304 303 303 302 301 301 300 299 299 298 298 297 297 296 296 295 295 294 293 293 292 291 291 291 290 290 289 289 288 288 288 287 287 286 286 285 284 283 282 281
304 304 305 305 304 304 304 305 305 305 306 306 306 307 308 309 309 309 309 308 308 308 308 308 307 306 307 307 307 307 308 309 311 311 312 312 311 311 310 308 307 306 306 307 307 306 305 304 303 302 302 301 301 300 300 299 298 298 297 296 295 295 294 294 293 293 292 292 292 292 291 291 290 289 289 289 288 288 287 287 286 286 285 283 282 280
304 304 305 305 305 305 306 307 306 306 306 307 308 310 312 312 312 310 309 308 308 308 308 308 306 305 306 307 308 309 311 313 313 313 313 312 312 311 310 309 308 308 308 307 306 305 304 304 303 303 302 302 302 301 300 300 299 298 297 296 295 295 294 294 294 294 293 293 293 293 293 292 292 292 291 291 291 291 290 290 289 289 287 285 283 280
305 306 306 307 307 308 308 307 307 307 309 309 311 313 313 312 310 309 308 308 308 308 308 307 306 306 307 308 310 313 315 314 313 312 312 311 311 310 309 308 307 306 306 305 305 305 305 305 305 304 304 303 303 302 301 300 299 298 297 297 296 296 296 296 296 296 296 296 295 295 295 295 295 294 294 294 294 294 294 293 293 292 291 289 287 283
309 309 309 309 310 309 308 308 308 309 310 311 312 312 312 311 310 309 308 308 308 309 309 308 309 310 311 312 313 313 313 311 311 311 311 310 308 307 305 305 305 306 306 306 307 307 307 307 307 307 306 306 305 303 302 301 300 300 299 299 299 299 299 299 298 298 298 297 297 297 296 296 296 296 296 296 296 296 296 295 295 295 294 293 291 288
311 311 311 312 312 312 311 311 310 310 311 312 312 313 312 312 311 310 309 308 309 310 310 310 310 310 310 311 311 310 308 307 307 307 306 305 305 304 305 306 307 308 308 309 309 310 310 310 310 310 309 308 307 305 304 303 303 302 302 302 302 302 302 301 301 300 300 299 299 298 298 298 297 298 298 297 297 296 296 295 294 294 294 293 292 290
313 312 312 313 313 312 312 312 311 311 312 313 313 313 313 313 311 309 309 309 310 310 311 309 308 306 305 306 306 305 305 305 304 304 304 305 305 307 308 309 310 311 311 312 313 313 313 313 313 312 311 309 308 307 306 305 305 304 304 304 303 303 303 302 301 301 300 299 299 298 297 297 296 296 295 295 295 295 294 294 293 292 292 291 290 289
313 313 312 313 313 311 311 311 311 312 313 314 314 314 314 313 311 310 310 310 310 309 308 307 306 305 305 306 307 307 307 308 308 309 309 309 310 311 312 312 313 313 314 315 315 315 315 315 315 313 312 310 308 307 306 305 305 305 304 303 303 302 301 300 299 299 298 297 296 296 295 294 294 293 292 291 291 290 291 291 290 290 289 289 288 287
312 312 312 313 313 311 311 311 312 313 314 315 315 315 314 313 311 311 310 310 309 309 308 308 308 308 309 310 311 311 312 312 312 312 312 312 313 314 314 313 314 315 316 316 316 316 316 316 315 313 311 309 308 306 305 305 304 303 303 302 301 300 300 299 298 298 297 297 296 296 295 294 293 293 292 291 290 290 289 288 287 286 286 286 286 286
311 312 312 314 313 311 311 312 313 314 315 315 315 315 314 312 311 310 310 310 310 310 310 310 310 310 311 312 313 314 314 314 313 313 313 313 313 314 314 315 316 316 317 317 317 317 316 315 314 312 310 308 306 305 304 304 303 303 302 302 302 301 301 300 299 299 298 298 297 296 295 294 294 293 292 291 291 290 289 289 287 286 285 284 283 283
313 313 314 315 314 312 312 313 313 314 315 316 317 315 313 311 310 310 310 310 310 310 310 310 309 310 312 313 314 314 314 313 313 313 313 313 314 315 316 317 317 317 317 317 317 317 315 314 312 309 307 306 305 304 304 304 304 304 304 303 303 302 302 301 300 300 299 298 297 297 296 295 294 293 292 291 290 289 288 287 287 286 284 283 282 281
315 315 315 315 315 314 314 314 314 315 317 318 317 314 312 311 311 311 311 311 311 311 311 311 311 312 313 314 314 315 315 315 315 315 315 316 318 318 318 318 318 318 318 317 317 316 314 312 309 307 306 305 305 305 305 305 305 305 304 304 303 302 302 301 301 300 300 299 298 297 297 296 295 294 293 291 290 289 288 287 286 284 283 282 280 279
316 315 315 316 316 316 316 316 316 317 317 317 315 313 312 312 312 312 312 313 313 314 314 314 315 316 317 316 316 317 317 317 318 318 319 319 319 319 320 320 320 319 319 318 317 315 313 310 308 307 307 307 307 307 307 307 306 306 306 305 304 304 303 303 302 301 301 300 299 298 297 296 295 294 292 291 290 289 288 287 286 285 283 281 280 278
316 316 316 317 318 317 317 317 316 316 317 316 314 313 313 314 314 313 314 315 317 318 319 319 319 319 319 319 319 319 320 320 321 321 320 320 320 320 321 321 320 319 318 317 315 313 312 310 309 309 310 310 309 309 309 309 309 309 308 307 307 306 306 305 304 303 302 301 299 298 297 296 294 293 292 290 289 288 286 285 284 283 282 281 280 278
318 318 318 318 318 318 317 316 316 317 318 317 316 315 316 317 317 317 318 320 321 321 320 320 320 320 320 321 321 321 322 323 322 321 320 321 321 321 321 320 320 319 318 316 314 313 312 312 311 311 311 311 311 311 311 311 310 310 310 310 309 308 307 306 305 304 303 301 300 299 297 296 294 293 292 290 289 287 286 285 283 282 281 280 278 277
320 319 318 318 319 318 318 318 318 319 320 319 317 318 320 320 319 318 318 320 320 320 320 321 322 322 322 323 322 322 322 322 322 321 321 321 321 321 321 320 319 319 318 316 315 314 314 314 314 314 314 313 313 313 313 313 312 312 311 311 310 309 308 307 306 305 303 302 301 300 298 296 295 293 292 291 289 288 286 284 283 281 280 278 276 275
320 320 320 320 320 320 320 320 320 320 320 320 320 322 323 322 320 320 320 321 322 322 323 324 324 324 324 323 322 321 320 321 321 321 321 321 321 321 321 320 319 319 318 317 317 316 316 316 316 316 316 316 315 315 315 315 314 313 312 311 310 309 309 308 307 306 305 303 302 300 299 297 296 294 293 291 289 288 286 284 283 281 279 277 275 273
322 322 321 321 321 321 321 320 320 321 321 322 323 324 324 323 323 323 324 324 324 324 325 325 324 324 323 321 320 320 320 320 321 321 321 322 322 322 321 321 320 319 319 318 318 317 317 317 317 317 317 317 317 317 316 316 315 314 314 313 312 311 310 309 308 307 305 304 303 301 300 298 297 295 293 291 290 288 286 284 282 280 278 276 274 272
323 323 322 322 321 320 321 321 321 322 323 323 323 324 324 325 324 323 324 325 325 325 325 325 323 323 322 322 322 322 322 322 323 323 323 323 323 323 322 321 320 319 319 319 319 318 318 318 318 318 318 318 317 317 317 316 316 315 315 314 313 312 311 310 309 308 306 305 304 302 301 300 298 296 295 293 291 288 286 284 282 280 277 275 273 271
323 322 322 321 320 320 321 322 323 323 323 323 323 324 325 325 324 324 325 326 326 325 325 324 323 323 324 324 324 325 325 325 325 325 325 325 325 324 322 321 320 320 320 320 319 319 319 319 319 319 319 318 317 317 317 317 316 316 316 315 314 313 312 311 310 309 308 307 306 304 303 301 300 298 297 295 293 290 288 285 283 280 277 275 273 270
323 322 322 322 321 322 323 324 323 323 323 323 324 326 327 326 326 326 326 326 326 325 325 325 325 326 326 326 326 327 327 326 326 327 326 326 325 323 322 321 321 321 321 321 320 320 320 320 320 319 319 319 318 318 318 317 317 317 316 315 314 314 313 313 312 311 310 309 308 307 306 304 303 301 299 297 295 294 291 288 285 281 278 275 273 270
323 323 323 323 322 323 324 324 323 323 324 325 326 328 328 327 327 327 327 326 327 327 327 327 327 327 328 328 327 327 327 327 326 326 326 324 323 323 322 321 321 321 321 321 320 320 320 320 320 320 320 319 319 319 319 318 318 317 317 316 315 315 315 314 314 313 312 311 310 310 309 308 306 304 302 300 298 296 294 291 288 284 280 276 272 269
324 324 323 324 324 325 325 325 325 326 327 327 328 328 328 328 328 328 328 328 328 328 328 328 328 328 328 328 328 327 327 327 326 325 324 324 323 322 322 322 322 322 322 321 321 321 320 321 321 321 320 320 320 320 320 319 319 319 318 317 317 317 317 316 316 315 314 313 313 313 311 310 308 305 303 301 299 297 295 292 289 286 282 278 273 269
325 325 325 326 326 327 328 328 329 330 329 329 330 330 330 330 330 329 329 329 329 328 328 328 328 328 328 328 328 328 327 327 326 325 324 324 323 322 323 323 323 323 322 322 321 321 321 321 321 322 322 322 321 321 321 320 320 320 320 319 318 319 319 318 318 317 317 316 316 315 314 313 310 308 305 303 301 299 297 294 291 288 284 279 274 269
326 326 326 327 328 329 330 331 332 332 332 332 332 332 332 331 331 330 329 329 329 329 329 329 329 329 329 329 329 328 328 327 326 325 325 324 324 323 323 324 324 323 323 322 322 322 322 322 323 323 323 323 323 323 322 322 322 322 321 320 320 321 321 320 320 320 319 320 320 319 319 317 315 313 310 307 305 303 300 297 293 290 285 281 275 269
326 327 328 329 330 331 332 333 333 333 333 333 332 332 331 331 330 329 329 329 330 330 330 330 330 330 330 330 329 328 327 326 326 325 325 325 324 324 324 324 324 324 323 323 323 323 323 324 324 324 324 324 324 324 324 324 323 323 323 323 323 323 323 323 323 323 323 323 324 324 323 321 319 317 315 313 310 308 305 302 298 293 287 282 276 270
328 328 330 331 332 332 333 334 334 333 332 332 331 331 330 330 330 330 330 331 332 332 331 331 331 331 330 330 329 328 327 326 326 326 326 325 325 325 325 325 325 324 324 324 324 325 325 325 325 325 326 326 326 326 325 325 324 324 324 324 324 325 325 326 326 326 326 327 327 326 325 324 323 322 321 319 316 313 311 308 304 298 291 284 278 272
328 329 330 331 332 332 333 334 333 333 332 331 330 331 331 331 331 331 332 333 333 332 332 331 331 331 330 330 329 328 327 326 326 326 326 326 325 325 325 325 325 325 325 325 326 326 326 326 327 327 327 327 327 327 326 326 326 326 326 325 325 326 328 328 329 330 330 330 329 329 329 330 330 329 328 326 322 319 316 314 311 305 297 289 281 274
329 330 331 331 332 333 333 333 332 332 331 331 331 331 332 332 332 333 333 333 333 332 332 332 331 331 330 330 329 328 327 326 326 327 327 326 326 326 326 326 326 326 327 327 327 327 328 328 328 329 329 329 328 328 328 328 328 327 327 327 328 329 330 331 332 333 332 331 332 334 336 338 338 336 335 333 330 325 322 322 319 312 304 298 286 275
330 330 331 331 332 333 333 333 332 332 332 332 332 332 333 333 334 334 334 333 333 333 333 332 332 331 331 329 328 327 327 327 327 328 327 327 327 327 327 327 327 328 328 328 328 329 329 329 330 330 330 330 329 329 329 329 329 329 329 329 330 331 332 333 335 335 333 334 338 341 343 345 345 344 343 342 339 333 328 330 332 324 312 306 297 283
330 330 332 333 334 334 334 334 334 334 334 334 333 333 334 335 335 334 334 334 334 333 333 333 333 332 330 329 328 328 328 328 328 328 328 328 327 328 328 328 328 329 329 329 329 330 330 331 331 331 331 330 330 330 330 330 331 331 331 331 333 333 334 335 337 336 336 339 344 347 349 350 352 353 352 350 348 345 339 338 342 341 329 318 309 295